This is the latest recevied weather packets stored in our database for station/object WB0YAF-8. If no packets are shown the sender has not sent any weather packets the latest 10 day(s).
| Time | Temp. | Humidity | Pressure | Rain* | Wind** | Luminosity | Snow |
|---|---|---|---|---|---|---|---|
| 1778107075 | 5° C | 40% | 1018.8 hPa | 0 mm | - | - | - |
| 1778106775 | 5° C | 40% | 1018.8 hPa | 0 mm | - | - | - |
| 1778106475 | 5° C | 40% | 1018.8 hPa | 0 mm | - | - | - |
| 1778106175 | 4.44° C | 41% | 1018.8 hPa | 0 mm | - | - | - |
| 1778105875 | 3.89° C | 40% | 1018.8 hPa | 0 mm | - | - | - |
| 1778105575 | 4.44° C | 40% | 1018.8 hPa | 0 mm | - | - | - |
| 1778105276 | 4.44° C | 41% | 1018.8 hPa | 0 mm | - | - | - |
| 1778104976 | 3.89° C | 41% | 1018.8 hPa | 0 mm | - | - | - |
| 1778104675 | 3.33° C | 41% | 1018.8 hPa | 0 mm | - | - | - |
| 1778104375 | 2.78° C | 42% | 1018.8 hPa | 0 mm | - | - | - |
| 1778104075 | 2.78° C | 42% | 1018.8 hPa | 0 mm | - | - | - |
| 1778103775 | 2.78° C | 43% | 1018.8 hPa | 0 mm | - | - | - |
| 1778103476 | 2.78° C | 42% | 1018.8 hPa | 0 mm | - | - | - |
| 1778103176 | 2.78° C | 44% | 1018.8 hPa | 0 mm | - | - | - |
| 1778102875 | 2.22° C | 47% | 1018.8 hPa | 0 mm | - | - | - |
| 1778102576 | 2.22° C | 45% | 1018.8 hPa | 0 mm | - | - | - |
| 1778102276 | 2.22° C | 46% | 1018.8 hPa | 0 mm | - | - | - |
| 1778101976 | 2.22° C | 46% | 1018.8 hPa | 0 mm | - | - | - |
| 1778101675 | 2.78° C | 45% | 1018.8 hPa | 0 mm | - | - | - |
| 1778101374 | 2.22° C | 45% | 1018.8 hPa | 0 mm | - | - | - |
| 1778101074 | 2.22° C | 44% | 1017.8 hPa | 0 mm | - | - | - |
| 1778100775 | 2.78° C | 44% | 1017.8 hPa | 0 mm | - | - | - |
| 1778100475 | 2.78° C | 46% | 1017.8 hPa | 0 mm | - | - | - |
| 1778100175 | 2.22° C | 47% | 1018.8 hPa | 0 mm | - | - | - |
| 1778099875 | 1.67° C | 46% | 1018.8 hPa | 0 mm | - | - | - |
* Rain latest hour (hover to see other rain measurements)
** Current wind speed in m/s (hover to see current wind gust speed)